Weather History for Mount Airy, NC

Change the Weather History Date:

Monday, October 15, 2012

  Actual Average (KINT) Record (KINT)
Temperature  
Mean Temperature 64 °F -  
Max Temperature 73 °F 68 °F 88 °F (1989)
Min Temperature 55 °F 48 °F 27 °F (1988)
Degree Days  
Heating Degree Days 1    
Growing Degree Days 14 (Base 50)    
Moisture  
Dew Point 52 °F    
Average Humidity 71    
Maximum Humidity 94    
Minimum Humidity 33    
Precipitation  
Precipitation 0.45 in - - ()
Sea Level Pressure  
Sea Level Pressure 29.88 in    
Wind  
Wind Speed 3 mph (West)    
Max Wind Speed 14 mph    
Max Gust Speed 25 mph    
Visibility 9 miles    
Events Rain    
Averages and records for this station are not official NWS values.
T = Trace of Precipitation, MM = Missing Value Source: NWS Daily Summary

Daily Weather History Graph

Daily Weather History Graph

Search for Another Location

Airport:

Trip Planner

Search our weather history database for the weather conditions in past years. The results will help you decide how hot, cold, wet, or windy it might be!

Date:

Astronomy

Oct. 15, 2012 Rise Set
Actual Time 7:29 AM EDT 6:45 PM EDT
Civil Twilight 7:03 AM EDT 7:11 PM EDT
Nautical Twilight 6:33 AM EDT 7:41 PM EDT
Astronomical Twilight 6:04 AM EDT 8:11 PM EDT
Moon 7:36 AM EDT (10/15) 6:46 PM EDT (10/15)
Length of Visible Light 12h 07m
Length of Day
11h 15m
New Moon, 0% of the Moon is Illuminated
Oct 15
New Moon
Oct 21
First Quarter
Oct 29
Full
Nov 6
Last Quarter
Nov 13
New

Hourly Weather History & Observations

Time (EDT) Temp. Dew Point Humidity Pressure Visibility Wind Dir Wind Speed Gust Speed Precip Events Conditions
12:15 AM 62.6 °F 57.2 °F 82% 30.02 in 10.0 mi Calm Calm - N/A   Overcast
12:35 AM 62.6 °F 57.2 °F 82% 30.02 in 10.0 mi Calm Calm - N/A   Mostly Cloudy
1:15 AM 62.6 °F 57.2 °F 82% 30.01 in 10.0 mi Calm Calm - N/A   Overcast
1:35 AM 62.6 °F 57.2 °F 82% 29.99 in 10.0 mi Calm Calm - N/A   Overcast
2:15 AM 60.8 °F 57.2 °F 88% 29.98 in 10.0 mi Calm Calm - N/A   Overcast
2:35 AM 60.8 °F 57.2 °F 88% 29.98 in 10.0 mi Calm Calm - N/A   Overcast
2:55 AM 60.8 °F 57.2 °F 88% 29.97 in 10.0 mi Calm Calm - N/A   Overcast
3:15 AM 60.8 °F 57.2 °F 88% 29.96 in 10.0 mi Calm Calm - N/A Rain Light Rain
3:35 AM 60.8 °F 57.2 °F 88% 29.94 in 10.0 mi Calm Calm - N/A   Overcast
3:55 AM 60.8 °F 57.2 °F 88% 29.93 in 10.0 mi Calm Calm - N/A   Overcast
4:15 AM 60.8 °F 57.2 °F 88% 29.93 in 10.0 mi SSE 3.5 mph - N/A   Overcast
4:35 AM 60.8 °F 57.2 °F 88% 29.92 in 10.0 mi Calm Calm - N/A   Overcast
4:55 AM 60.8 °F 57.2 °F 88% 29.92 in 10.0 mi Calm Calm - N/A Rain Light Rain
5:15 AM 60.8 °F 57.2 °F 88% 29.91 in 10.0 mi Calm Calm - N/A   Overcast
5:35 AM 60.8 °F 59.0 °F 94% 29.91 in 7.0 mi Calm Calm - N/A   Overcast
5:55 AM 60.8 °F 59.0 °F 94% 29.92 in 7.0 mi Calm Calm - N/A   Overcast
6:15 AM 60.8 °F 59.0 °F 94% 29.92 in 7.0 mi Calm Calm - N/A   Overcast
6:35 AM 60.8 °F 59.0 °F 94% 29.90 in 3.0 mi SSE 4.6 mph - 0.05 in Rain Rain
6:55 AM 60.8 °F 59.0 °F 94% 29.90 in 7.0 mi SSE 4.6 mph - 0.08 in Rain Light Rain
7:15 AM 60.8 °F 59.0 °F 94% 29.90 in 7.0 mi SSW 3.5 mph - 0.03 in Rain Light Rain
7:35 AM 60.8 °F 57.2 °F 88% 29.91 in 7.0 mi South 3.5 mph - 0.08 in Rain Rain
8:35 AM 59.0 °F 57.2 °F 94% 29.92 in 5.0 mi Calm Calm - 0.12 in Rain Rain
8:55 AM 59.0 °F 55.4 °F 88% 29.91 in 3.0 mi Calm Calm - 0.24 in Rain Heavy Rain
9:35 AM 60.8 °F 57.2 °F 88% 29.90 in 10.0 mi SW 3.5 mph - 0.04 in Rain Light Rain
9:55 AM 60.8 °F 57.2 °F 88% 29.90 in 10.0 mi Calm Calm - 0.04 in   Overcast
10:15 AM 60.8 °F 59.0 °F 94% 29.89 in 10.0 mi SW 3.5 mph - N/A   Overcast
10:55 AM 62.6 °F 59.0 °F 88% 29.88 in 10.0 mi WSW 3.5 mph - 0.01 in   Overcast
11:15 AM 62.6 °F 59.0 °F 88% 29.86 in 10.0 mi Calm Calm - N/A   Overcast
11:35 AM 62.6 °F 59.0 °F 88% 29.85 in 10.0 mi SW 3.5 mph - N/A   Overcast
11:55 AM 62.6 °F 59.0 °F 88% 29.85 in 10.0 mi SSW 3.5 mph - N/A   Overcast
12:35 PM 66.2 °F 60.8 °F 83% 29.83 in 10.0 mi SSW 4.6 mph - N/A   Mostly Cloudy
12:55 PM 66.2 °F 60.8 °F 83% 29.82 in 10.0 mi South 3.5 mph - N/A   Overcast
1:15 PM 68.0 °F 60.8 °F 78% 29.81 in 10.0 mi South 5.8 mph - N/A   Overcast
1:35 PM 68.0 °F 62.6 °F 83% 29.80 in 10.0 mi South 6.9 mph - N/A   Mostly Cloudy
2:15 PM 71.6 °F 62.6 °F 73% 29.77 in 10.0 mi SW 5.8 mph - N/A   Scattered Clouds
2:35 PM 71.6 °F 60.8 °F 69% 29.76 in 10.0 mi WSW 5.8 mph - N/A   Scattered Clouds
3:15 PM 71.6 °F 44.6 °F 38% 29.76 in 10.0 mi WNW 12.7 mph 21.9 mph N/A   Scattered Clouds
3:35 PM 73.4 °F 44.6 °F 36% 29.76 in 10.0 mi West 9.2 mph 24.2 mph N/A   Clear
4:15 PM 71.6 °F 41.0 °F 33% 29.77 in 10.0 mi West 13.8 mph 21.9 mph N/A   Clear
4:35 PM 71.6 °F 42.8 °F 35% 29.77 in 10.0 mi West 10.4 mph 21.9 mph N/A   Clear
5:15 PM 69.8 °F 39.2 °F 33% 29.78 in 10.0 mi WNW 9.2 mph 20.7 mph N/A   Clear
5:35 PM 68.0 °F 39.2 °F 35% 29.79 in 10.0 mi WNW 10.4 mph 25.3 mph N/A   Clear
5:55 PM 66.2 °F 41.0 °F 40% 29.79 in 10.0 mi WNW 10.4 mph 18.4 mph N/A   Clear
6:15 PM 64.4 °F 41.0 °F 42% 29.80 in 10.0 mi NW 5.8 mph - N/A   Clear
6:35 PM 64.4 °F 42.8 °F 45% 29.80 in 10.0 mi NW 9.2 mph 18.4 mph N/A   Clear
7:15 PM 62.6 °F 42.8 °F 48% 29.82 in 10.0 mi WNW 6.9 mph - N/A   Clear
7:35 PM 62.6 °F 42.8 °F 48% 29.83 in 10.0 mi WNW 8.1 mph - N/A   Clear
7:55 PM 62.6 °F 41.0 °F 45% 29.83 in 10.0 mi WNW 8.1 mph - N/A   Clear
8:15 PM 60.8 °F 39.2 °F 45% 29.84 in 10.0 mi West 8.1 mph - N/A   Clear
8:35 PM 60.8 °F 37.4 °F 42% 29.84 in 10.0 mi WNW 9.2 mph - N/A   Clear
9:15 PM 60.8 °F 37.4 °F 42% 29.86 in 10.0 mi WNW 6.9 mph 18.4 mph N/A   Clear
9:35 PM 59.0 °F 37.4 °F 45% 29.87 in 10.0 mi WNW 5.8 mph - N/A   Clear
10:15 PM 57.2 °F 39.2 °F 51% 29.88 in 10.0 mi NW 4.6 mph - N/A   Clear
10:35 PM 57.2 °F 41.0 °F 55% 29.89 in 10.0 mi NW 4.6 mph - N/A   Clear
10:55 PM 55.4 °F 41.0 °F 58% 29.89 in 10.0 mi NNW 5.8 mph - N/A   Clear
11:15 PM 57.2 °F 41.0 °F 55% 29.90 in 10.0 mi NW 12.7 mph 17.3 mph N/A   Clear
11:35 PM 55.4 °F 41.0 °F 58% 29.90 in 10.0 mi NW 6.9 mph - N/A   Clear